Location: Passau
(48.5830°N, 13.4830°E)
Time: 11:54:48
(UTC+01:00)

NOAA 19 - Pass Details

Date: 01 December 2021
Orbit: 841 x 860 km, 99.2° (Epoch: 24 January)

Event Time Altitude Azimuth Distance (km) Brightness Sun altitude
Rises 18:28:05 0° 159° (SSE) 3,383 8.2 -21.6°
Reaches altitude 10° 18:30:26 10° 158° (SSE) 2,453 7.5 -21.9°
Maximum altitude 18:35:52 80° 72° (ENE) 860 5.0 -22.8°
Drops below altitude 10° 18:41:22 10° 347° (NNW) 2,477 7.7 -23.7°
Sets 18:43:44 0° 346° (NNW) 3,419 8.5 -24.1°
